Hourly Data Report for May 21, 2022

CAMPBELL RIVER A
BRITISH COLUMBIA
Current Station Operator: NAVCAN

49°57'07.000" N
125°16'23.000" W
108.80 m
1021270
YBL

Download Data

Hourly Data (May 2022)
Hourly Data Report for May 21, 2022
TIME
LST
Temp Definition
°C
Dew Point Definition
°C
Rel Hum Definition
%
Precip. Amount Definition
mm

Wind Dir Definition
10's deg

Wind Spd Definition
km/h
Visibility Definition
km
Stn Press Definition
kPa
Hmdx Definition


Wind Chill Definition


Weather Definition


00:00 5.6 3.6 87 LegendMM 31 7 LegendMM 100.99     LegendNANA
01:00 8.7 4.4 74 LegendMM 30 12 LegendMM 100.99     LegendNANA
02:00 7.1 4.0 81 LegendMM 31 11 LegendMM 101.01     LegendNANA
03:00 6.4 4.0 85 LegendMM 31 12 LegendMM 101.04     LegendNANA
04:00 6.2 4.1 86 LegendMM 31 9 LegendMM 101.06     LegendNANA
05:00 5.1 3.1 87 LegendMM 30 12 LegendMM 101.08     LegendNANA
06:00 8.7 4.9 77 LegendMM 31 10 LegendMM 101.11     LegendNANA
07:00 11.5 4.6 62 LegendMM 32 13 LegendMM 101.13     LegendNANA
08:00 13.6 4.7 55 LegendMM 33 17 LegendMM 101.11     LegendNANA
09:00 15.0 4.7 50 LegendMM 35 1 LegendMM 101.10     LegendNANA
10:00 16.3 5.9 50 LegendMM 8 10 LegendMM 101.09     LegendNANA
11:00 17.2 5.1 44 LegendMM 9 10 LegendMM 101.09     LegendNANA
12:00 18.2 0.6 30 LegendMM 5 10 LegendMM 101.08     LegendNANA
13:00 19.0 -1.0 26 LegendMM 7 3 LegendMM 101.06     LegendNANA
14:00 20.0 -2.6 21 LegendMM 3 12 LegendMM 101.02     LegendNANA
15:00 20.7 -3.5 19 LegendMM 9 17 LegendMM 100.98     LegendNANA
16:00 20.4 -4.3 18 LegendMM 6 9 LegendMM 100.95     LegendNANA
17:00 20.5 -5.6 17 LegendMM 7 10 LegendMM 100.93     LegendNANA
18:00 20.2 -3.6 20 LegendMM 10 9 LegendMM 100.92     LegendNANA
19:00 16.9 0.8 33 LegendMM 15 6 LegendMM 100.92     LegendNANA
20:00 12.6 4.9 59 LegendMM 25 4 LegendMM 100.92     LegendNANA
21:00 10.1 6.0 76 LegendMM 24 7 LegendMM 100.96     LegendNANA
22:00 6.1 4.2 87 LegendMM 28 6 LegendMM 100.99     LegendNANA
23:00 6.3 3.6 83 LegendMM 31 3 LegendMM 101.02     LegendNANA

Notes on Data Quality.

Legend

  • E = Estimated
  • M = Missing
  • NA = Not Available*
  • [empty] = Indicates an unobserved value
Date modified: